Date String (YYYY-MM-DD hh:mm:ss) UTC,Instrument flags,Ambient pressure (hPa),Sample flow (lpm),Bypass flow (lpm),Sample temperature (°C),Ambient temperature (°C),ASC tube jacket temperature (°C),LED temperature (°C),Box temperature (°C),Sample RH (%),Span deviation,Mass concentration (μg/m³),Mass concentration (μg/m³),Mass concentration (μg/m³)
DateTimeUTC,F1_M11,P_M11,Q1_M11,Q2_M11,T1_M11,T2_M11,T3_M11,T4_M11,T5_M11,U1_M11,ZSPAN_M11,X2_M11,X0_M11,X1_M11
2023-03-12 18:00:00,,0825.6,4.99,0.00,22.4,20.9,00.0,31.2,24.1,12.2,0000.3,0005.29,0009.26,0004.85
2023-03-12 18:01:00,,0825.6,4.99,0.00,22.4,21.4,00.0,31.2,24.2,12.1,-000.1,0005.29,0009.15,0004.85
2023-03-12 18:02:00,,0825.6,5.00,0.00,22.5,22.6,00.0,31.2,24.5,12.0,0000.1,0005.30,0009.13,0004.86
2023-03-12 18:03:00,,0825.6,5.02,0.00,22.6,23.2,00.0,31.2,24.7,11.8,0000.0,0005.30,0009.15,0004.86
2023-03-12 18:04:00,,0825.6,5.01,0.00,22.7,22.8,00.0,31.3,24.7,11.8,0000.2,0005.31,0009.17,0004.87
2023-03-12 18:05:00,,0825.6,5.01,0.00,22.7,22.4,00.0,31.3,24.6,11.8,0000.8,0005.33,0009.22,0004.87
2023-03-12 18:06:00,,0825.7,4.99,0.00,22.7,22.2,00.0,31.3,24.6,11.8,0000.7,0005.34,0009.43,0004.88
2023-03-12 18:07:00,,0825.7,5.01,0.00,22.7,21.9,00.0,31.3,24.5,11.8,0000.7,0005.36,0010.36,0004.89
2023-03-12 18:08:00,,0825.7,4.99,0.00,22.7,21.8,00.0,31.4,24.5,11.7,0001.3,0005.36,0010.35,0004.89
2023-03-12 18:09:00,,0825.6,5.01,0.00,22.7,21.6,00.0,31.4,24.5,11.8,0001.6,0005.34,0009.76,0004.89
2023-03-12 18:10:00,,0825.5,4.97,0.00,22.7,21.5,00.0,31.4,24.5,11.8,0001.3,0005.35,0009.73,0004.90
2023-03-12 18:11:00,,0825.6,5.00,0.00,22.7,21.4,00.0,31.4,24.4,11.7,0000.4,0005.33,0009.65,0004.89
2023-03-12 18:12:00,,0825.6,5.02,0.00,22.7,21.3,00.0,31.4,24.4,11.7,0001.1,0005.31,0009.66,0004.89
2023-03-12 18:13:00,,0825.6,5.01,0.00,22.7,21.3,00.0,31.4,24.4,11.7,0000.6,0005.29,0009.99,0004.88
2023-03-12 18:14:00,,0825.6,4.99,0.00,22.7,21.2,00.0,31.4,24.4,11.7,-000.1,0005.27,0010.26,0004.87
2023-03-12 18:15:00,,0825.5,5.00,0.00,22.7,21.2,00.0,31.4,24.4,11.8,-000.7,0005.28,0010.30,0004.86
2023-03-12 18:16:00,,0825.5,5.01,0.00,22.7,21.2,00.0,31.4,24.4,11.8,-001.7,0005.28,0010.34,0004.87
2023-03-12 18:17:00,,0825.6,5.01,0.00,22.6,21.1,00.0,31.4,24.4,11.7,-001.6,0005.30,0010.56,0004.88
2023-03-12 18:18:00,,0825.6,5.01,0.00,22.6,21.1,00.0,31.4,24.4,11.7,0000.0,0005.30,0009.58,0004.89
2023-03-12 18:19:00,,0825.6,5.01,0.00,22.6,21.1,00.0,31.4,24.4,11.8,0000.0,0005.28,0009.26,0004.89
2023-03-12 18:20:00,,0825.6,5.00,0.00,22.6,21.1,00.0,31.4,24.4,11.7,-000.7,0005.28,0009.22,0004.88
2023-03-12 18:21:00,,0825.6,5.00,0.00,22.6,21.1,00.0,31.4,24.4,11.7,-002.1,0005.28,0009.19,0004.87
2023-03-12 18:22:00,,0825.6,4.99,0.00,22.6,21.1,00.0,31.4,24.4,11.7,-001.1,0005.30,0009.21,0004.87
2023-03-12 18:23:00,,0825.6,5.00,0.00,22.6,21.1,00.0,31.4,24.4,11.7,-001.2,0005.32,0009.32,0004.86
2023-03-12 18:24:00,,0825.6,5.00,0.00,22.6,21.1,00.0,31.4,24.4,11.7,-000.9,0005.35,0009.45,0004.86
2023-03-12 18:25:00,,0825.6,5.00,0.00,22.6,21.1,00.0,31.4,24.4,11.7,-000.3,0005.35,0009.52,0004.86
2023-03-12 18:26:00,,0825.6,5.00,0.00,22.6,21.1,00.0,31.4,24.4,11.8,0000.4,0005.32,0009.41,0004.86
2023-03-12 18:27:00,,0825.6,4.99,0.00,22.6,21.1,00.0,31.3,24.3,11.7,0000.7,0005.27,0009.26,0004.84
2023-03-12 18:28:00,,0825.6,5.01,0.00,22.6,21.0,00.0,31.3,24.3,11.6,0001.1,0005.23,0008.88,0004.82
2023-03-12 18:29:00,,0825.6,5.01,0.00,22.6,21.0,00.0,31.3,24.3,11.7,0000.7,0005.18,0008.83,0004.78
2023-03-12 18:30:00,,0825.6,4.99,0.00,22.6,21.0,00.0,31.3,24.3,11.7,0000.6,0005.18,0008.85,0004.77
2023-03-12 18:31:00,,0825.5,5.00,0.00,22.6,21.0,00.0,31.3,24.3,11.7,0000.9,0005.18,0008.86,0004.77
2023-03-12 18:32:00,,0825.6,5.00,0.00,22.6,21.1,00.0,31.3,24.3,11.7,0001.1,0005.14,0009.08,0004.76
2023-03-12 18:33:00,,0825.6,5.01,0.00,22.6,21.0,00.0,31.3,24.3,11.7,0000.3,0005.13,0009.41,0004.74
2023-03-12 18:34:00,,0825.5,5.00,0.00,22.6,21.0,00.0,31.3,24.3,11.7,0000.2,0005.10,0009.36,0004.71
2023-03-12 18:35:00,,0825.5,5.00,0.00,22.6,21.0,00.0,31.3,24.3,11.6,0000.3,0005.05,0009.10,0004.67
2023-03-12 18:36:00,,0825.5,5.01,0.00,22.6,21.2,00.0,31.3,24.4,11.5,0000.1,0005.01,0008.42,0004.63
2023-03-12 18:37:00,,0825.4,4.98,0.00,22.6,22.3,00.0,31.3,24.6,11.5,-000.1,0004.97,0008.51,0004.60
2023-03-12 18:38:00,,0825.5,5.00,0.00,22.8,23.2,00.0,31.3,24.8,11.4,0000.3,0004.95,0008.64,0004.57
2023-03-12 18:39:00,,0825.5,5.00,0.00,22.8,22.9,00.0,31.4,24.8,11.5,0000.2,0004.96,0008.79,0004.56
2023-03-12 18:40:00,,0825.5,5.01,0.00,22.8,22.6,00.0,31.4,24.7,11.6,0000.1,0004.99,0009.28,0004.53
2023-03-12 18:41:00,,0825.4,5.00,0.00,22.8,22.3,00.0,31.4,24.7,11.4,-000.1,0004.94,0009.21,0004.51
2023-03-12 18:42:00,,0825.4,5.01,0.00,22.8,22.0,00.0,31.4,24.6,11.4,-000.8,0004.89,0009.19,0004.48
2023-03-12 18:43:00,,0825.5,5.00,0.00,22.8,21.8,00.0,31.4,24.6,11.4,-001.0,0004.86,0008.98,0004.46
2023-03-12 18:44:00,,0825.4,4.98,0.00,22.8,21.7,00.0,31.5,24.6,11.5,-000.0,0004.85,0008.59,0004.46
2023-03-12 18:45:00,,0825.4,5.03,0.00,22.8,21.5,00.0,31.5,24.5,11.6,0000.2,0004.84,0008.63,0004.46
2023-03-12 18:46:00,,0825.5,5.04,0.00,22.8,21.5,00.0,31.5,24.5,11.6,0000.2,0004.87,0008.72,0004.47
2023-03-12 18:47:00,,0825.4,4.99,0.00,22.8,21.4,00.0,31.5,24.5,11.7,0000.3,0004.86,0008.67,0004.49
2023-03-12 18:48:00,,0825.4,5.04,0.00,22.8,21.4,00.0,31.5,24.5,11.8,-000.6,0004.89,0008.57,0004.51
2023-03-12 18:49:00,,0825.4,4.99,0.00,22.8,21.3,00.0,31.5,24.5,11.8,0000.0,0004.91,0008.44,0004.53
2023-03-12 18:50:00,,0825.4,5.03,0.00,22.7,21.2,00.0,31.5,24.5,11.8,-000.2,0004.92,0008.38,0004.54
2023-03-12 18:51:00,,0825.4,5.00,0.00,22.7,21.0,00.0,31.4,24.3,11.7,0000.0,0004.89,0007.86,0004.55
2023-03-12 18:52:00,,0825.4,4.99,0.00,22.7,20.9,00.0,31.4,24.3,11.8,-000.1,0004.90,0007.95,0004.56
2023-03-12 18:53:00,,0825.3,5.01,0.00,22.6,20.8,00.0,31.4,24.3,11.7,0000.0,0004.91,0008.04,0004.57
2023-03-12 18:54:00,,0825.4,5.01,0.00,22.6,20.7,00.0,31.4,24.2,11.7,0000.0,0004.92,0008.09,0004.58
2023-03-12 18:55:00,,0825.3,4.99,0.00,22.5,20.7,00.0,31.4,24.2,11.6,0000.0,0004.94,0008.12,0004.57
2023-03-12 18:56:00,,0825.3,4.99,0.00,22.5,20.7,00.0,31.4,24.2,11.7,0000.0,0004.94,0008.06,0004.54
2023-03-12 18:57:00,,0825.3,5.01,0.00,22.5,20.7,00.0,31.4,24.2,11.8,0000.0,0004.91,0007.97,0004.52
2023-03-12 18:58:00,,0825.3,5.01,0.00,22.5,20.8,00.0,31.3,24.2,11.9,0000.0,0004.90,0008.38,0004.50
2023-03-12 18:59:00,,0825.3,4.99,0.00,22.5,20.9,00.0,31.3,24.2,12.0,0000.0,0004.89,0008.56,0004.47
